Angleton, TX

7:50 AM CDT on September 18, 2019 (GMT -0500)
Brazoria County

Weather History for KLBX - August, 2019

Change the Weather History Date:

Friday, August 23, 2019

  Actual Average Record
Temperature  
Mean Temperature 82 °F -  
Max Temperature 91 °F 89 °F 100 °F (2011)
Min Temperature 75 °F 72 °F 69 °F (2001)
Cooling Degree Days 18    
Growing Degree Days 32 (Base 50)    
Moisture  
Dew Point 74 °F    
Average Humidity 84    
Maximum Humidity 94    
Minimum Humidity 59    
Precipitation  
Precipitation 0.89 in - - ()
Sea Level Pressure  
Sea Level Pressure 29.90 in    
Wind  
Wind Speed 4 mph ()    
Max Wind Speed 17 mph    
Max Gust Speed 21 mph    
Visibility 8.1 miles    
Events Fog , Rain , Thunderstorm    
Averages and records for this station are not official NWS values.
T = Trace of Precipitation, MM = Missing Value Source: Averaged Metar Reports

Daily Weather History Graph

Daily Weather History Graph

Search for Another Location

Airport or City:

Astronomy

Aug. 23, 2019 Rise Set
Actual Time 6:54 AM CDT 7:53 PM CDT
Civil Twilight 6:30 AM CDT 8:18 PM CDT
Nautical Twilight 6:01 AM CDT 8:47 PM CDT
Astronomical Twilight 5:31 AM CDT 9:16 PM CDT
Moon 12:17 AM CDT (8/23) 1:57 PM CDT (8/23)
Length of Visible Light 13h 48m
Length of Day
12h 59m
Waning Gibbous, 49% of the Moon is Illuminated
Aug 23
Waning Gibbous
Aug 30
New
Sep 5
First Quarter
Sep 13
Full
Sep 21
Last Quarter

Hourly Weather History & Observations

Time (CDT) Temp. Heat Index Dew Point Humidity Pressure Visibility Wind Dir Wind Speed Gust Speed Precip Events Conditions
12:53 AM 79.0 °F - 75.0 °F 88% 29.91 in 10.0 mi Calm Calm - N/A   Clear
1:53 AM 77.0 °F - 73.9 °F 90% 29.90 in 10.0 mi Calm Calm - N/A   Clear
2:53 AM 77.0 °F - 75.0 °F 94% 29.89 in 10.0 mi Calm Calm - N/A   Partly Cloudy
3:53 AM 77.0 °F - 75.0 °F 94% 29.89 in 10.0 mi Calm Calm - N/A   Clear
4:53 AM 77.0 °F - 73.9 °F 90% 29.89 in 10.0 mi Calm Calm - N/A   Clear
5:53 AM 75.9 °F - 73.9 °F 94% 29.90 in 10.0 mi Calm Calm - N/A   Clear
6:53 AM 77.0 °F - 75.0 °F 94% 29.91 in 10.0 mi Calm Calm - 0.01 in   Clear
7:53 AM 79.0 °F - 77.0 °F 94% 29.93 in 10.0 mi SSW 5.8 mph - N/A   Scattered Clouds
8:53 AM 82.0 °F 88.6 °F 75.0 °F 79% 29.92 in 10.0 mi WSW 8.1 mph - 0.00 in   Clear
9:53 AM 82.9 °F 90.2 °F 75.0 °F 77% 29.92 in 10.0 mi Variable 3.5 mph - N/A   Mostly Cloudy
10:53 AM 88.0 °F 96.5 °F 73.9 °F 63% 29.92 in 10.0 mi Variable 3.5 mph - N/A   Partly Cloudy
11:53 AM 89.1 °F 97.0 °F 73.0 °F 59% 29.91 in 10.0 mi SW 5.8 mph - N/A   Clear
12:53 PM 90.0 °F 102.5 °F 77.0 °F 65% 29.91 in 10.0 mi South 9.2 mph - N/A Thunderstorm Mostly Cloudy
1:08 PM 90.0 °F 101.3 °F 75.9 °F 63% 29.91 in 10.0 mi South 10.4 mph - N/A   Scattered Clouds
1:40 PM 89.1 °F 99.1 °F 75.0 °F 63% 29.91 in 10.0 mi SE 9.2 mph - N/A Thunderstorm Mostly Cloudy
1:50 PM 87.8 °F 97.6 °F 75.2 °F 66% 29.92 in 10.0 mi East 6.9 mph - N/A Thunderstorm Thunderstorm
1:53 PM 87.1 °F 96.3 °F 75.0 °F 67% 29.92 in 10.0 mi North 15.0 mph 20.7 mph N/A Thunderstorm Thunderstorm
2:11 PM 80.1 °F 83.8 °F 72.0 °F 76% 29.92 in 10.0 mi North 17.3 mph - N/A Thunderstorm Thunderstorm
2:36 PM 77.0 °F - 72.0 °F 84% 29.94 in 9.0 mi North 13.8 mph - 0.00 in Rain , Thunderstorm Light Thunderstorms and Rain
2:49 PM 75.2 °F - 73.4 °F 94% 29.93 in 1.8 mi NNW 4.6 mph - 0.10 in Rain , Thunderstorm Heavy Thunderstorms and Rain
2:50 PM 75.0 °F - 73.0 °F 94% 29.93 in 1.8 mi NW 3.5 mph - 0.11 in Rain , Thunderstorm Heavy Thunderstorms and Rain
2:59 PM 75.0 °F - 73.0 °F 94% 29.93 in 2.0 mi Calm Calm - 0.03 in Rain , Thunderstorm Thunderstorms and Rain
3:11 PM 75.9 °F - 73.0 °F 91% 29.91 in 0.8 mi ESE 12.7 mph 18.4 mph 0.35 in Rain , Thunderstorm Heavy Rain
3:14 PM 75.9 °F - 73.9 °F 94% 29.90 in 0.5 mi ESE 11.5 mph - 0.44 in Fog , Rain Heavy Rain
3:21 PM 75.0 °F - 72.0 °F 90% 29.90 in 0.8 mi SE 8.1 mph - 0.62 in Rain , Thunderstorm Heavy Rain
3:30 PM 77.0 °F - 73.0 °F 88% 29.90 in 1.0 mi ESE 6.9 mph - 0.75 in Rain , Thunderstorm Heavy Thunderstorms and Rain
3:36 PM 77.0 °F - 75.0 °F 94% 29.89 in 3.0 mi SSW 3.5 mph - 0.75 in Rain , Thunderstorm Light Thunderstorms and Rain
3:53 PM 77.0 °F - 75.0 °F 94% 29.91 in 10.0 mi Calm Calm - 0.75 in Thunderstorm Thunderstorm
4:03 PM 77.0 °F - 73.0 °F 88% 29.90 in 10.0 mi North 3.5 mph - N/A   Scattered Clouds
4:53 PM 77.0 °F - 75.0 °F 94% 29.89 in 10.0 mi Calm Calm - 0.01 in Rain Light Rain
5:53 PM 81.0 °F 87.3 °F 75.9 °F 85% 29.87 in 10.0 mi ESE 5.8 mph - 0.00 in   Partly Cloudy
6:53 PM 81.0 °F 86.7 °F 75.0 °F 82% 29.85 in 10.0 mi ESE 6.9 mph - 0.01 in   Clear
7:53 PM 81.0 °F 86.7 °F 75.0 °F 82% 29.87 in 10.0 mi ESE 5.8 mph - N/A   Scattered Clouds
8:53 PM 80.1 °F 85.1 °F 75.0 °F 85% 29.88 in 10.0 mi East 4.6 mph - N/A   Clear
9:53 PM 80.1 °F 85.1 °F 75.0 °F 85% 29.89 in 10.0 mi ESE 6.9 mph - N/A   Partly Cloudy
10:53 PM 79.0 °F - 73.9 °F 84% 29.89 in 10.0 mi ESE 5.8 mph - N/A   Clear
11:53 PM 77.0 °F - 73.9 °F 90% 29.90 in 10.0 mi Calm Calm - N/A   Clear